Location: Zagreb
(45.8000°N, 16.0000°E)
Time: 12:16:19
(UTC+01:00)

Vanguard 1 Rocket - Pass Details

Date: 11 October 2020
Orbit: 656 x 4221 km, 34.3° (Epoch: 28 October)

Event Time Altitude Azimuth Distance (km) Brightness Sun altitude
Rises 14:58:15 0° 215° (SW) 3,397 11.6 28.9°
Reaches altitude 10° 15:00:47 10° 201° (SSW) 2,716 11.2 28.6°
Maximum altitude 15:06:00 25° 147° (SSE) 2,382 9.9 28.0°
Drops below altitude 10° 15:14:06 10° 98° (E) 4,376 10.6 27.0°
Sets 15:19:34 0° 88° (E) 6,057 11.2 26.4°
